Regional Weather Roundup
Issued by NWS

Home | Current Version | Previous Version | Text Only | Print | Product List | Glossary Off
Versions: 1 2 3 4 5 6 7 8 9 10 11 12 13 14 15 16 17 18 19 20 21 22 23 24 25 26 27 28 29 30 31 32 33 34 35 36 37 38 39 40 41 42 43 44 45 46 47 48 49 50

000
ASUS43 KLSX 020007
RWRMO

WEATHER SUMMARY FOR MISSOURI
NATIONAL WEATHER SERVICE SPRINGFIELD MO
700 PM CDT WED OCT 01 2014

NOTE: "FAIR" INDICATES FEW OR NO CLOUDS BELOW 12,000 FEET WITH NO
       SIGNIFICANT WEATHER AND/OR OBSTRUCTIONS TO VISIBILITY.
       CURRENT SKY AND/OR WEATHER CONDITIONS ARE NOT AVAILABLE FOR
       CHILLICOTHE AND FARMINGTON.

MOZ001>031-035>038-043-044-053-054-020100-
...NORTHERN AND WESTERN MISSOURI...

CITY           SKY/WX    TMP DP  RH WIND       PRES   REMARKS
KANSAS CTY INT CLOUDY    70  65  84 SE13      29.75R
6HR MIN TEMP:  70; 6HR MAX TEMP:  80;

KANSAS C DTWN  CLOUDY    69  66  90 E6        29.73F
6HR MIN TEMP:  69; 6HR MAX TEMP:  81; 6HR PCP:  0.39;

LEE`S SUMMIT   CLOUDY    69  67  93 E8        29.76F
6HR MIN TEMP:  68; 6HR MAX TEMP:  75; 6HR PCP:  0.52;

ST JOSEPH      PTCLDY    74  67  78 E7        29.73S
6HR MIN TEMP:  71; 6HR MAX TEMP:  79;

CHILLICOTHE      N/A     70  66  87 E3        29.78R
6HR MIN TEMP:  65; 6HR MAX TEMP:  73; 6HR PCP:  0.06;

KIRKSVILLE     MOCLDY    66  66 100 E6        29.79F FOG
6HR MIN TEMP:  65; 6HR MAX TEMP:  68; 6HR PCP:  0.12;


$$
MOZ066>068-077>081-088>096-101>105-020100-
...SOUTHWEST MISSOURI...

CITY           SKY/WX    TMP DP  RH WIND       PRES   REMARKS
SPRINGFIELD    CLOUDY    78  65  63 S6        29.78R
6HR MIN TEMP:  78; 6HR MAX TEMP:  87;

JOPLIN         MOCLDY    78  68  71 S13       29.74F
6HR MIN TEMP:  76; 6HR MAX TEMP:  87; 6HR PCP:  0.09;


$$
MOZ032>034-039>042-045>050-055>058-069>072-020100-
...CENTRAL MISSOURI...

CITY           SKY/WX    TMP DP  RH WIND       PRES   REMARKS
COLUMBIA       LGT RAIN  67  66  97 NE12      29.79S FOG
6HR MIN TEMP:  67; 6HR MAX TEMP:  80; 6HR PCP:  0.87;

ROLLA          CLOUDY    80  63  55 S12       29.79R
6HR MIN TEMP:  80; 6HR MAX TEMP:  88;

SEDALIA        TSTM      66  63  90 S12       29.80F FOG
6HR MIN TEMP:  66; 6HR MAX TEMP:  81;

WHITEMAN AFB   MOCLDY    66  63  90 S12       29.77F
OSAGE BEACH    CLOUDY    75  63  64 NE6       29.78R

$$
MOZ051-052-059>065-020100-
...EAST CENTRAL MISSOURI...

CITY           SKY/WX    TMP DP  RH WIND       PRES   REMARKS
ST LOUIS INTL  CLOUDY    85  63  47 S13       29.80R
6HR MIN TEMP:  83; 6HR MAX TEMP:  88;

SPIRIT OF STL  CLOUDY    81  63  54 SE6       29.78S
6HR MIN TEMP:  81; 6HR MAX TEMP:  87;

ST CHARLES     CLOUDY    82  63  52 S10       29.77S
6HR MIN TEMP:  81; 6HR MAX TEMP:  88;


$$
MOZ072>076-082>087-097>100-106>115-020100-
...SOUTH CENTRAL AND SOUTHEAST MISSOURI...

CITY           SKY/WX    TMP DP  RH WIND       PRES   REMARKS
CAPE GIRARDEAU PTCLDY    80  62  54 S8        29.87R
6HR MIN TEMP:  79; 6HR MAX TEMP:  87;

FARMINGTON     PTCLDY    79  64  61 SE8       29.87S
6HR MIN TEMP:  79; 6HR MAX TEMP:  86;

POPLAR BLUFF   LGT RAIN  74  67  78 CALM      29.86R
6HR MIN TEMP:  73; 6HR MAX TEMP:  88; 6HR PCP:  0.07;

WEST PLAINS    PTCLDY    77  66  68 SE5       29.85R
6HR MIN TEMP:  77; 6HR MAX TEMP:  85;


$$


USA.gov is the U.S. government's official web portal to all federal, state and local government web resources and services.